Time,TemperatureF,DewpointF,PressureIn,WindDirection,WindDirectionDegrees,WindSpeedMPH,WindSpeedGustMPH,Humidity,HourlyPrecipIn,Conditions,Clouds,dailyrainin,SoftwareType,DateUTC
2013-03-12 00:00:00,28.7,22.7,29.66,NW,304,6.0,12.0,78,0.00,RA,,0.00,WeatherDisplay:10.37,2013-03-12 05:00:00,
2013-03-12 00:05:00,28.7,23.0,29.66,NW,306,6.0,12.0,79,0.00,RA,,0.00,WeatherDisplay:10.37,2013-03-12 05:05:00,
2013-03-12 00:10:00,28.8,23.4,29.66,NW,305,7.0,12.0,80,0.00,CLR,,0.00,WeatherDisplay:10.37,2013-03-12 05:10:00,
2013-03-12 00:15:00,28.8,23.7,29.66,NW,308,6.0,13.0,81,0.00,CLR,,0.00,WeatherDisplay:10.37,2013-03-12 05:15:00,
2013-03-12 00:20:00,28.7,23.6,29.66,WNW,303,7.0,14.0,81,0.00,CLR,,0.00,WeatherDisplay:10.37,2013-03-12 05:20:00,
2013-03-12 00:25:00,28.7,23.9,29.66,WNW,302,6.0,10.0,82,0.00,CLR,,0.00,WeatherDisplay:10.37,2013-03-12 05:25:00,
2013-03-12 00:30:00,28.8,24.6,29.67,WNW,301,6.0,11.0,84,0.00,CLR,,0.00,WeatherDisplay:10.37,2013-03-12 05:30:00,
2013-03-12 00:35:00,28.8,24.6,29.67,WNW,302,9.0,13.0,84,0.00,CLR,,0.00,WeatherDisplay:10.37,2013-03-12 05:35:00,
2013-03-12 00:40:00,28.8,24.9,29.67,WNW,301,7.0,13.0,85,0.00,CLR,,0.00,WeatherDisplay:10.37,2013-03-12 05:40:00,
2013-03-12 00:45:00,28.8,24.9,29.67,WNW,297,8.0,13.0,85,0.00,CLR,,0.00,WeatherDisplay:10.37,2013-03-12 05:45:00,
2013-03-12 00:50:00,28.8,25.1,29.67,WNW,296,5.0,12.0,86,0.00,CLR,,0.00,WeatherDisplay:10.37,2013-03-12 05:50:00,
2013-03-12 00:55:00,28.8,24.9,29.67,NW,304,5.0,12.0,85,0.00,CLR,,0.00,WeatherDisplay:10.37,2013-03-12 05:55:00,
2013-03-12 01:00:00,28.8,25.1,29.67,WNW,296,6.0,12.0,86,0.00,CLR,,0.00,WeatherDisplay:10.37,2013-03-12 06:00:00,
2013-03-12 01:05:00,28.7,24.5,29.67,WNW,286,5.0,13.0,84,0.00,CLR,,0.00,WeatherDisplay:10.37,2013-03-12 06:05:00,
2013-03-12 01:10:00,28.5,24.3,29.67,WNW,283,6.0,12.0,84,0.00,CLR,,0.00,WeatherDisplay:10.37,2013-03-12 06:10:00,
2013-03-12 01:15:00,28.4,23.3,29.68,WNW,293,7.0,15.0,81,0.00,CLR,,0.00,WeatherDisplay:10.37,2013-03-12 06:15:00,
2013-03-12 01:20:00,28.2,23.1,29.68,WNW,290,7.0,14.0,81,0.00,CLR,,0.00,WeatherDisplay:10.37,2013-03-12 06:20:00,
2013-03-12 01:25:00,28.2,23.1,29.68,WNW,291,8.0,14.0,81,0.00,CLR,,0.00,WeatherDisplay:10.37,2013-03-12 06:25:00,
2013-03-12 01:30:00,28.2,23.4,29.68,WNW,290,2.0,12.0,82,0.00,CLR,,0.00,WeatherDisplay:10.37,2013-03-12 06:30:00,
2013-03-12 01:35:00,28.2,23.4,29.68,West,277,3.0,8.0,82,0.00,CLR,,0.00,WeatherDisplay:10.37,2013-03-12 06:35:00,
2013-03-12 01:40:00,28.2,23.4,29.68,West,277,5.0,8.0,82,0.00,CLR,,0.00,WeatherDisplay:10.37,2013-03-12 06:40:00,
2013-03-12 01:45:00,28.2,23.4,29.69,WNW,290,5.0,12.0,82,0.00,CLR,,0.00,WeatherDisplay:10.37,2013-03-12 06:45:00,
2013-03-12 01:50:00,28.2,23.1,29.69,WNW,295,8.0,14.0,81,0.00,CLR,,0.00,WeatherDisplay:10.37,2013-03-12 06:50:00,
2013-03-12 01:55:00,28.2,23.1,29.69,WNW,293,5.0,12.0,81,0.00,CLR,,0.00,WeatherDisplay:10.37,2013-03-12 06:55:00,
2013-03-12 02:00:00,28.2,23.1,29.70,WNW,302,6.0,12.0,81,0.00,CLR,,0.00,WeatherDisplay:10.37,2013-03-12 07:00:00,
2013-03-12 02:05:00,28.2,22.8,29.70,WNW,299,8.0,14.0,80,0.00,CLR,,0.00,WeatherDisplay:10.37,2013-03-12 07:05:00,
2013-03-12 02:10:00,28.2,22.8,29.70,WNW,295,5.0,10.0,80,0.00,CLR,,0.00,WeatherDisplay:10.37,2013-03-12 07:10:00,
2013-03-12 02:15:00,28.2,22.8,29.70,WNW,298,5.0,12.0,80,0.00,CLR,,0.00,WeatherDisplay:10.37,2013-03-12 07:15:00,
2013-03-12 02:20:00,28.1,22.7,29.70,WNW,297,9.0,13.0,80,0.00,CLR,,0.00,WeatherDisplay:10.37,2013-03-12 07:20:00,
2013-03-12 02:25:00,28.1,22.7,29.70,WNW,293,3.0,10.0,80,0.00,CLR,,0.00,WeatherDisplay:10.37,2013-03-12 07:25:00,
2013-03-12 02:30:00,28.1,22.7,29.70,WNW,299,5.0,9.0,80,0.00,CLR,,0.00,WeatherDisplay:10.37,2013-03-12 07:30:00,
2013-03-12 02:35:00,27.9,22.2,29.70,WNW,302,5.0,12.0,79,0.00,CLR,,0.00,WeatherDisplay:10.37,2013-03-12 07:35:00,
2013-03-12 02:40:00,27.9,22.2,29.70,WNW,287,6.0,12.0,79,0.00,CLR,,0.00,WeatherDisplay:10.37,2013-03-12 07:40:00,
2013-03-12 02:45:00,27.8,22.1,29.70,WNW,288,5.0,10.0,79,0.00,CLR,,0.00,WeatherDisplay:10.37,2013-03-12 07:45:00,
2013-03-12 02:50:00,27.8,22.1,29.70,WNW,300,5.0,9.0,79,0.00,CLR,,0.00,WeatherDisplay:10.37,2013-03-12 07:50:00,
2013-03-12 02:55:00,27.6,21.9,29.70,WNW,289,5.0,7.0,79,0.00,CLR,,0.00,WeatherDisplay:10.37,2013-03-12 07:55:00,
2013-03-12 03:00:00,27.6,21.9,29.70,WNW,294,5.0,8.0,79,0.00,CLR,,0.00,WeatherDisplay:10.37,2013-03-12 08:00:00,
2013-03-12 03:05:00,27.6,21.9,29.70,WNW,299,5.0,12.0,79,0.00,CLR,,0.00,WeatherDisplay:10.37,2013-03-12 08:05:00,
2013-03-12 03:15:00,27.6,22.2,29.70,WNW,291,3.0,8.0,80,0.00,CLR,,0.00,WeatherDisplay:10.37,2013-03-12 08:15:00,
2013-03-12 03:25:00,27.5,22.4,29.70,WNW,295,3.0,7.0,81,0.00,CLR,,0.00,WeatherDisplay:10.37,2013-03-12 08:25:00,
2013-03-12 03:30:00,27.5,22.4,29.70,WNW,296,3.0,6.0,81,0.00,CLR,,0.00,WeatherDisplay:10.37,2013-03-12 08:30:00,
2013-03-12 03:40:00,27.5,22.7,29.70,WNW,285,3.0,6.0,82,0.00,CLR,,0.00,WeatherDisplay:10.37,2013-03-12 08:40:00,
2013-03-12 03:45:00,27.5,22.7,29.70,WNW,282,2.0,4.0,82,0.00,CLR,,0.00,WeatherDisplay:10.37,2013-03-12 08:45:00,
2013-03-12 03:55:00,27.3,22.8,29.70,WNW,290,3.0,5.0,83,0.00,CLR,,0.00,WeatherDisplay:10.37,2013-03-12 08:55:00,
2013-03-12 04:00:00,27.3,23.1,29.70,West,278,2.0,5.0,84,0.00,CLR,,0.00,WeatherDisplay:10.37,2013-03-12 09:00:00,
2013-03-12 04:05:00,27.3,23.7,29.70,West,267,2.0,5.0,86,0.00,CLR,,0.00,WeatherDisplay:10.37,2013-03-12 09:05:00,
2013-03-12 04:15:00,27.2,24.1,29.71,WSW,243,3.0,5.0,88,0.00,CLR,,0.00,WeatherDisplay:10.37,2013-03-12 09:15:00,
2013-03-12 04:25:00,27.2,24.7,29.71,WSW,252,2.0,4.0,90,0.00,CLR,,0.00,WeatherDisplay:10.37,2013-03-12 09:25:00,
2013-03-12 04:30:00,27.2,24.9,29.71,WSW,239,1.0,3.0,91,0.00,CLR,,0.00,WeatherDisplay:10.37,2013-03-12 09:30:00,
2013-03-12 04:40:00,27.2,25.2,29.71,WSW,256,3.0,7.0,92,0.00,CLR,,0.00,WeatherDisplay:10.37,2013-03-12 09:40:00,
2013-03-12 04:45:00,27.0,25.2,29.71,WSW,248,2.0,5.0,93,0.00,CLR,,0.00,WeatherDisplay:10.37,2013-03-12 09:45:00,
2013-03-12 04:50:00,27.0,25.2,29.71,WSW,247,2.0,5.0,93,0.00,CLR,,0.00,WeatherDisplay:10.37,2013-03-12 09:50:00,
2013-03-12 04:55:00,27.0,25.3,29.71,WSW,244,3.0,5.0,93,0.00,CLR,,0.00,WeatherDisplay:10.37,2013-03-12 09:55:00,
2013-03-12 05:00:00,27.0,25.3,29.72,WSW,247,3.0,7.0,93,0.00,CLR,,0.00,WeatherDisplay:10.37,2013-03-12 10:00:00,
2013-03-12 05:05:00,27.0,25.2,29.72,WSW,255,2.0,7.0,93,0.00,CLR,,0.00,WeatherDisplay:10.37,2013-03-12 10:05:00,
2013-03-12 05:15:00,27.0,25.5,29.72,WSW,249,3.0,7.0,94,0.00,CLR,,0.00,WeatherDisplay:10.37,2013-03-12 10:15:00,
2013-03-12 05:20:00,27.0,25.5,29.72,WSW,242,2.0,7.0,94,0.00,CLR,,0.00,WeatherDisplay:10.37,2013-03-12 10:20:00,
2013-03-12 05:25:00,27.0,25.5,29.72,WSW,245,2.0,6.0,94,0.00,CLR,,0.00,WeatherDisplay:10.37,2013-03-12 10:25:00,
2013-03-12 05:30:00,27.0,25.5,29.73,WSW,256,1.0,5.0,94,0.00,CLR,,0.00,WeatherDisplay:10.37,2013-03-12 10:30:00,
2013-03-12 05:35:00,27.0,25.5,29.73,WSW,254,2.0,5.0,94,0.00,CLR,,0.00,WeatherDisplay:10.37,2013-03-12 10:35:00,
2013-03-12 05:40:00,27.0,25.5,29.73,WSW,240,2.0,5.0,94,0.00,CLR,,0.00,WeatherDisplay:10.37,2013-03-12 10:40:00,
2013-03-12 05:45:00,27.0,25.5,29.73,WSW,241,0.0,5.0,94,0.00,CLR,,0.00,WeatherDisplay:10.37,2013-03-12 10:45:00,
2013-03-12 05:50:00,27.0,25.5,29.73,SW,234,2.0,4.0,94,0.00,CLR,,0.00,WeatherDisplay:10.37,2013-03-12 10:50:00,
2013-03-12 05:55:00,27.0,25.5,29.73,SW,232,1.0,4.0,94,0.00,CLR,,0.00,WeatherDisplay:10.37,2013-03-12 10:55:00,
2013-03-12 06:05:00,26.9,25.4,29.73,WSW,237,3.0,7.0,94,0.00,CLR,,0.00,WeatherDisplay:10.37,2013-03-12 11:05:00,
2013-03-12 06:10:00,26.9,25.4,29.73,WSW,246,0.0,6.0,94,0.00,CLR,,0.00,WeatherDisplay:10.37,2013-03-12 11:10:00,
2013-03-12 06:20:00,27.0,25.5,29.73,West,265,2.0,6.0,94,0.00,CLR,,0.00,WeatherDisplay:10.37,2013-03-12 11:20:00,
2013-03-12 06:25:00,27.0,25.5,29.73,WSW,248,3.0,7.0,94,0.00,CLR,,0.00,WeatherDisplay:10.37,2013-03-12 11:25:00,
2013-03-12 06:30:00,27.2,25.4,29.73,WSW,244,3.0,6.0,93,0.00,CLR,,0.00,WeatherDisplay:10.37,2013-03-12 11:30:00,
2013-03-12 06:35:00,27.2,25.2,29.73,WSW,253,2.0,8.0,92,0.00,CLR,,0.00,WeatherDisplay:10.37,2013-03-12 11:35:00,
2013-03-12 06:40:00,27.3,25.3,29.73,WSW,256,2.0,5.0,92,0.00,CLR,,0.00,WeatherDisplay:10.37,2013-03-12 11:40:00,
2013-03-12 06:45:00,27.3,25.0,29.73,WSW,241,2.0,6.0,91,0.00,CLR,,0.00,WeatherDisplay:10.37,2013-03-12 11:45:00,
2013-03-12 06:50:00,27.3,24.8,29.73,WSW,245,3.0,6.0,90,0.00,CLR,,0.00,WeatherDisplay:10.37,2013-03-12 11:50:00,
2013-03-12 06:55:00,27.3,24.5,29.73,WSW,252,3.0,7.0,89,0.00,CLR,,0.00,WeatherDisplay:10.37,2013-03-12 11:55:00,
2013-03-12 07:00:00,27.3,24.2,29.73,West,260,2.0,7.0,88,0.00,CLR,,0.00,WeatherDisplay:10.37,2013-03-12 12:00:00,
2013-03-12 07:05:00,27.3,23.9,29.73,West,281,3.0,7.0,87,0.00,CLR,,0.00,WeatherDisplay:10.37,2013-03-12 12:05:00,
2013-03-12 07:10:00,27.3,23.7,29.73,WNW,287,2.0,7.0,86,0.00,CLR,,0.00,WeatherDisplay:10.37,2013-03-12 12:10:00,
2013-03-12 07:15:00,27.3,23.1,29.74,WNW,293,2.0,8.0,84,0.00,CLR,,0.00,WeatherDisplay:10.37,2013-03-12 12:15:00,
2013-03-12 07:20:00,27.2,23.0,29.74,WNW,292,2.0,8.0,84,0.00,CLR,,0.00,WeatherDisplay:10.37,2013-03-12 12:20:00,
2013-03-12 07:25:00,27.2,22.4,29.74,WNW,291,5.0,8.0,82,0.00,CLR,,0.00,WeatherDisplay:10.37,2013-03-12 12:25:00,
2013-03-12 07:30:00,27.2,22.4,29.74,WNW,283,3.0,9.0,82,0.00,CLR,,0.00,WeatherDisplay:10.37,2013-03-12 12:30:00,
2013-03-12 07:35:00,27.2,21.8,29.74,West,275,3.0,9.0,80,0.00,CLR,,0.00,WeatherDisplay:10.37,2013-03-12 12:35:00,
2013-03-12 07:40:00,27.2,21.8,29.74,West,277,2.0,10.0,80,0.00,CLR,,0.00,WeatherDisplay:10.37,2013-03-12 12:40:00,
2013-03-12 07:45:00,27.2,21.8,29.74,West,275,5.0,10.0,80,0.00,CLR,,0.00,WeatherDisplay:10.37,2013-03-12 12:45:00,
2013-03-12 07:50:00,27.2,21.8,29.74,West,274,5.0,9.0,80,0.00,CLR,,0.00,WeatherDisplay:10.37,2013-03-12 12:50:00,
2013-03-12 07:55:00,27.0,21.4,29.74,WNW,283,3.0,8.0,79,0.00,CLR,,0.00,WeatherDisplay:10.37,2013-03-12 12:55:00,
2013-03-12 08:00:00,27.0,21.4,29.75,West,281,3.0,8.0,79,0.00,CLR,,0.00,WeatherDisplay:10.37,2013-03-12 13:00:00,
2013-03-12 08:05:00,27.0,21.7,29.75,West,260,3.0,7.0,80,0.00,CLR,,0.00,WeatherDisplay:10.37,2013-03-12 13:05:00,
2013-03-12 08:10:00,27.0,21.9,29.75,West,260,5.0,7.0,81,0.00,CLR,,0.00,WeatherDisplay:10.37,2013-03-12 13:10:00,
2013-03-12 08:15:00,27.0,22.2,29.75,West,262,3.0,6.0,82,0.00,CLR,,0.00,WeatherDisplay:10.37,2013-03-12 13:15:00,
2013-03-12 08:20:00,27.0,22.2,29.75,West,261,5.0,9.0,82,0.00,CLR,,0.00,WeatherDisplay:10.37,2013-03-12 13:20:00,
2013-03-12 08:25:00,27.0,21.9,29.75,West,266,3.0,8.0,81,0.00,CLR,,0.00,WeatherDisplay:10.37,2013-03-12 13:25:00,
2013-03-12 08:30:00,27.0,21.9,29.75,WSW,257,3.0,8.0,81,0.00,CLR,,0.00,WeatherDisplay:10.37,2013-03-12 13:30:00,
2013-03-12 08:35:00,27.2,22.1,29.75,WSW,255,2.0,7.0,81,0.00,CLR,,0.00,WeatherDisplay:10.37,2013-03-12 13:35:00,
2013-03-12 08:40:00,27.3,22.2,29.75,WSW,257,1.0,5.0,81,0.00,CLR,,0.00,WeatherDisplay:10.37,2013-03-12 13:40:00,
2013-03-12 08:45:00,27.5,22.4,29.76,WSW,258,2.0,5.0,81,0.00,CLR,,0.00,WeatherDisplay:10.37,2013-03-12 13:45:00,
2013-03-12 08:50:00,27.5,21.2,29.76,West,268,2.0,6.0,77,0.00,CLR,,0.00,WeatherDisplay:10.37,2013-03-12 13:50:00,
2013-03-12 08:55:00,27.5,21.2,29.76,West,267,3.0,7.0,77,0.00,CLR,,0.00,WeatherDisplay:10.37,2013-03-12 13:55:00,
2013-03-12 09:00:00,27.5,21.2,29.76,West,259,5.0,8.0,77,0.00,CLR,,0.00,WeatherDisplay:10.37,2013-03-12 14:00:00,
2013-03-12 09:05:00,27.6,21.6,29.76,WSW,256,5.0,12.0,78,0.00,CLR,,0.00,WeatherDisplay:10.37,2013-03-12 14:05:00,
2013-03-12 09:10:00,27.6,21.6,29.76,WSW,252,3.0,9.0,78,0.00,CLR,,0.00,WeatherDisplay:10.37,2013-03-12 14:10:00,
2013-03-12 09:15:00,27.9,22.2,29.76,WSW,243,3.0,7.0,79,0.00,CLR,,0.00,WeatherDisplay:10.37,2013-03-12 14:15:00,
2013-03-12 09:20:00,28.1,22.5,29.76,WSW,244,2.0,6.0,79,0.00,CLR,,0.00,WeatherDisplay:10.37,2013-03-12 14:20:00,
2013-03-12 09:25:00,28.2,22.2,29.76,WSW,248,1.0,8.0,78,0.00,CLR,,0.00,WeatherDisplay:10.37,2013-03-12 14:25:00,
2013-03-12 09:30:00,28.4,21.8,29.77,WSW,250,5.0,8.0,76,0.00,CLR,,0.00,WeatherDisplay:10.37,2013-03-12 14:30:00,
2013-03-12 09:35:00,28.4,22.1,29.77,WSW,251,5.0,10.0,77,0.00,CLR,,0.00,WeatherDisplay:10.37,2013-03-12 14:35:00,
2013-03-12 09:45:00,28.2,21.9,29.77,WSW,247,5.0,8.0,77,0.00,CLR,,0.00,WeatherDisplay:10.37,2013-03-12 14:45:00,
2013-03-12 09:50:00,28.4,22.1,29.77,WSW,255,3.0,9.0,77,0.00,CLR,,0.00,WeatherDisplay:10.37,2013-03-12 14:50:00,
2013-03-12 09:55:00,28.4,21.8,29.77,West,261,2.0,6.0,76,0.00,CLR,,0.00,WeatherDisplay:10.37,2013-03-12 14:55:00,
2013-03-12 10:00:00,28.5,21.9,29.77,West,260,5.0,7.0,76,0.00,CLR,,0.00,WeatherDisplay:10.37,2013-03-12 15:00:00,
2013-03-12 10:05:00,28.8,22.2,29.77,West,260,5.0,7.0,76,0.00,CLR,,0.00,WeatherDisplay:10.37,2013-03-12 15:05:00,
2013-03-12 10:10:00,28.7,21.1,29.77,WSW,256,5.0,8.0,73,0.00,CLR,,0.00,WeatherDisplay:10.37,2013-03-12 15:10:00,
2013-03-12 10:15:00,28.7,21.1,29.77,WSW,255,3.0,7.0,73,0.00,CLR,,0.00,WeatherDisplay:10.37,2013-03-12 15:15:00,
2013-03-12 10:20:00,28.8,22.2,29.77,WSW,254,3.0,4.0,76,0.00,CLR,,0.00,WeatherDisplay:10.37,2013-03-12 15:20:00,
2013-03-12 10:25:00,28.6,21.7,29.77,West,266,3.0,10.0,75,0.00,CLR,,0.00,WeatherDisplay:10.37,2013-03-12 15:25:00,
2013-03-12 10:30:00,28.2,21.6,29.77,West,270,3.0,12.0,76,0.00,CLR,,0.00,WeatherDisplay:10.37,2013-03-12 15:30:00,
2013-03-12 10:35:00,28.1,21.5,29.77,West,271,5.0,7.0,76,0.00,CLR,,0.00,WeatherDisplay:10.37,2013-03-12 15:35:00,
2013-03-12 10:40:00,28.4,21.8,29.77,West,281,5.0,7.0,76,0.00,CLR,,0.00,WeatherDisplay:10.37,2013-03-12 15:40:00,
2013-03-12 10:45:00,28.5,21.9,29.77,West,276,3.0,7.0,76,0.00,CLR,,0.00,WeatherDisplay:10.37,2013-03-12 15:45:00,
2013-03-12 10:50:00,28.7,22.1,29.77,West,259,3.0,8.0,76,0.00,CLR,,0.00,WeatherDisplay:10.37,2013-03-12 15:50:00,
2013-03-12 10:55:00,29.0,22.1,29.77,WSW,253,2.0,5.0,75,0.00,CLR,,0.00,WeatherDisplay:10.37,2013-03-12 15:55:00,
2013-03-12 11:00:00,29.3,22.4,29.77,WSW,254,2.0,8.0,75,0.00,CLR,,0.00,WeatherDisplay:10.37,2013-03-12 16:00:00,
2013-03-12 11:05:00,29.4,22.1,29.77,WSW,248,3.0,9.0,74,0.00,CLR,,0.00,WeatherDisplay:10.37,2013-03-12 16:05:00,
2013-03-12 11:15:00,29.4,21.8,29.77,West,259,2.0,7.0,73,0.00,RA,,0.01,WeatherDisplay:10.37,2013-03-12 16:15:00,
2013-03-12 11:25:00,29.7,22.1,29.77,WSW,251,5.0,8.0,73,0.00,CLR,,0.01,WeatherDisplay:10.37,2013-03-12 16:25:00,
2013-03-12 11:30:00,30.2,22.3,29.77,WSW,240,3.0,7.0,72,0.00,CLR,,0.01,WeatherDisplay:10.37,2013-03-12 16:30:00,
2013-03-12 11:35:00,30.8,22.1,29.77,WSW,245,5.0,8.0,70,0.00,CLR,,0.01,WeatherDisplay:10.37,2013-03-12 16:35:00,
2013-03-12 11:40:00,30.9,23.0,29.77,West,259,2.0,7.0,72,0.00,CLR,,0.01,WeatherDisplay:10.37,2013-03-12 16:40:00,
2013-03-12 11:45:00,31.4,23.1,29.77,WSW,250,3.0,8.0,71,0.00,CLR,,0.01,WeatherDisplay:10.37,2013-03-12 16:45:00,
2013-03-12 11:55:00,32.4,23.3,29.77,WSW,249,5.0,9.0,69,0.00,CLR,,0.01,WeatherDisplay:10.37,2013-03-12 16:55:00,
2013-03-12 12:00:00,31.6,22.2,29.77,WSW,252,6.0,9.0,68,0.00,CLR,,0.01,WeatherDisplay:10.37,2013-03-12 17:00:00,
2013-03-12 12:05:00,30.9,22.0,29.77,West,259,3.0,7.0,69,0.00,CLR,,0.01,WeatherDisplay:10.37,2013-03-12 17:05:00,
2013-03-12 12:10:00,30.6,22.0,29.77,WSW,256,3.0,8.0,70,0.00,CLR,,0.01,WeatherDisplay:10.37,2013-03-12 17:10:00,
2013-03-12 12:20:00,30.6,22.0,29.78,WSW,258,3.0,8.0,70,0.00,CLR,,0.01,WeatherDisplay:10.37,2013-03-12 17:20:00,
2013-03-12 12:25:00,30.7,22.4,29.78,West,259,2.0,6.0,71,0.00,CLR,,0.01,WeatherDisplay:10.37,2013-03-12 17:25:00,
2013-03-12 12:30:00,30.8,21.8,29.78,WSW,255,3.0,8.0,69,0.00,CLR,,0.01,WeatherDisplay:10.37,2013-03-12 17:30:00,
2013-03-12 12:35:00,30.3,21.0,29.78,West,263,2.0,8.0,68,0.00,CLR,,0.01,WeatherDisplay:10.37,2013-03-12 17:35:00,
2013-03-12 12:40:00,29.8,21.5,29.78,West,276,3.0,8.0,71,0.00,CLR,,0.01,WeatherDisplay:10.37,2013-03-12 17:40:00,
2013-03-12 12:45:00,30.0,21.7,29.78,West,271,2.0,7.0,71,0.00,CLR,,0.01,WeatherDisplay:10.37,2013-03-12 17:45:00,
2013-03-12 12:55:00,30.4,21.4,29.78,West,269,6.0,9.0,69,0.00,CLR,,0.01,WeatherDisplay:10.37,2013-03-12 17:55:00,
2013-03-12 13:00:00,30.6,21.3,29.78,West,265,3.0,9.0,68,0.00,CLR,,0.01,WeatherDisplay:10.37,2013-03-12 18:00:00,
2013-03-12 13:10:00,30.3,21.3,29.78,WNW,286,5.0,8.0,69,0.00,CLR,,0.01,WeatherDisplay:10.37,2013-03-12 18:10:00,
2013-03-12 13:15:00,30.1,21.5,29.78,West,269,5.0,8.0,70,0.00,CLR,,0.01,WeatherDisplay:10.37,2013-03-12 18:15:00,
2013-03-12 13:20:00,30.3,21.0,29.78,West,263,5.0,8.0,68,0.00,CLR,,0.01,WeatherDisplay:10.37,2013-03-12 18:20:00,
2013-03-12 13:30:00,30.9,21.6,29.78,WSW,254,6.0,9.0,68,0.00,CLR,,0.01,WeatherDisplay:10.37,2013-03-12 18:30:00,
2013-03-12 13:40:00,30.9,20.9,29.78,WSW,256,5.0,9.0,66,0.00,CLR,,0.01,WeatherDisplay:10.37,2013-03-12 18:40:00,
2013-03-12 13:45:00,31.1,21.4,29.77,West,259,5.0,9.0,67,0.00,CLR,,0.01,WeatherDisplay:10.37,2013-03-12 18:45:00,
2013-03-12 13:50:00,31.3,21.3,29.77,West,267,5.0,12.0,66,0.00,CLR,,0.01,WeatherDisplay:10.37,2013-03-12 18:50:00,
2013-03-12 13:55:00,31.2,21.2,29.77,West,270,3.0,12.0,66,0.00,CLR,,0.01,WeatherDisplay:10.37,2013-03-12 18:55:00,
2013-03-12 14:00:00,31.2,21.9,29.77,West,271,6.0,9.0,68,0.00,CLR,,0.01,WeatherDisplay:10.37,2013-03-12 19:00:00,
2013-03-12 14:05:00,31.2,21.9,29.77,West,264,5.0,10.0,68,0.00,CLR,,0.01,WeatherDisplay:10.37,2013-03-12 19:05:00,
2013-03-12 14:10:00,31.3,22.0,29.77,West,267,5.0,10.0,68,0.00,CLR,,0.01,WeatherDisplay:10.37,2013-03-12 19:10:00,
2013-03-12 14:15:00,31.2,21.5,29.77,WNW,283,5.0,9.0,67,0.00,CLR,,0.01,WeatherDisplay:10.37,2013-03-12 19:15:00,
2013-03-12 14:20:00,31.5,22.1,29.77,West,274,5.0,9.0,68,0.00,CLR,,0.01,WeatherDisplay:10.37,2013-03-12 19:20:00,
2013-03-12 14:30:00,31.5,21.4,29.77,West,280,6.0,10.0,66,0.00,CLR,,0.01,WeatherDisplay:10.37,2013-03-12 19:30:00,
2013-03-12 14:35:00,30.6,20.9,29.77,WNW,289,5.0,9.0,67,0.00,CLR,,0.01,WeatherDisplay:10.37,2013-03-12 19:35:00,
2013-03-12 14:40:00,31.1,21.4,29.77,West,271,6.0,10.0,67,0.00,CLR,,0.01,WeatherDisplay:10.37,2013-03-12 19:40:00,
2013-03-12 14:45:00,31.8,22.1,29.77,West,261,3.0,7.0,67,0.00,CLR,,0.01,WeatherDisplay:10.37,2013-03-12 19:45:00,
2013-03-12 14:50:00,32.2,21.7,29.77,West,274,3.0,8.0,65,0.00,CLR,,0.01,WeatherDisplay:10.37,2013-03-12 19:50:00,
2013-03-12 14:55:00,31.8,21.8,29.77,WNW,283,5.0,7.0,66,0.00,CLR,,0.01,WeatherDisplay:10.37,2013-03-12 19:55:00,
2013-03-12 15:00:00,30.6,20.9,29.77,WNW,299,7.0,12.0,67,0.00,CLR,,0.01,WeatherDisplay:10.37,2013-03-12 20:00:00,
2013-03-12 15:05:00,30.1,21.5,29.77,WNW,303,7.0,12.0,70,0.00,CLR,,0.01,WeatherDisplay:10.37,2013-03-12 20:05:00,
2013-03-12 15:10:00,29.7,21.8,29.77,WNW,303,6.0,10.0,72,0.00,CLR,,0.01,WeatherDisplay:10.37,2013-03-12 20:10:00,
2013-03-12 15:15:00,29.4,21.8,29.77,NW,308,5.0,10.0,73,0.00,CLR,,0.01,WeatherDisplay:10.37,2013-03-12 20:15:00,
2013-03-12 15:20:00,29.3,21.7,29.77,NW,308,6.0,12.0,73,0.00,CLR,,0.01,WeatherDisplay:10.37,2013-03-12 20:20:00,
2013-03-12 15:25:00,29.4,21.8,29.77,NW,304,6.0,10.0,73,0.00,CLR,,0.01,WeatherDisplay:10.37,2013-03-12 20:25:00,
2013-03-12 15:30:00,29.3,22.0,29.77,WNW,303,5.0,9.0,74,0.00,CLR,,0.01,WeatherDisplay:10.37,2013-03-12 20:30:00,
2013-03-12 15:40:00,29.0,21.7,29.77,WNW,302,6.0,9.0,74,0.00,CLR,,0.01,WeatherDisplay:10.37,2013-03-12 20:40:00,
2013-03-12 15:45:00,29.1,21.5,29.78,WNW,297,7.0,9.0,73,0.00,CLR,,0.01,WeatherDisplay:10.37,2013-03-12 20:45:00,
2013-03-12 15:50:00,28.8,21.2,29.78,WNW,298,7.0,13.0,73,0.00,CLR,,0.01,WeatherDisplay:10.37,2013-03-12 20:50:00,
2013-03-12 16:00:00,29.1,21.2,29.78,WNW,301,6.0,9.0,72,0.00,CLR,,0.01,WeatherDisplay:10.37,2013-03-12 21:00:00,
2013-03-12 16:10:00,29.5,21.6,29.78,WNW,285,3.0,8.0,72,0.00,CLR,,0.01,WeatherDisplay:10.37,2013-03-12 21:10:00,
2013-03-12 16:15:00,29.8,20.9,29.78,WNW,285,6.0,10.0,69,0.00,CLR,,0.01,WeatherDisplay:10.37,2013-03-12 21:15:00,
2013-03-12 16:20:00,29.8,21.2,29.78,WNW,297,5.0,8.0,70,0.00,CLR,,0.01,WeatherDisplay:10.37,2013-03-12 21:20:00,
2013-03-12 16:25:00,29.8,21.2,29.78,WNW,300,5.0,12.0,70,0.00,CLR,,0.01,WeatherDisplay:10.37,2013-03-12 21:25:00,
2013-03-12 16:30:00,29.4,20.1,29.78,WNW,301,9.0,14.0,68,0.00,CLR,,0.01,WeatherDisplay:10.37,2013-03-12 21:30:00,
2013-03-12 16:35:00,29.3,20.7,29.78,WNW,299,6.0,12.0,70,0.00,CLR,,0.01,WeatherDisplay:10.37,2013-03-12 21:35:00,
2013-03-12 16:45:00,29.1,20.9,29.79,WNW,300,7.0,12.0,71,0.00,CLR,,0.01,WeatherDisplay:10.37,2013-03-12 21:45:00,
2013-03-12 16:50:00,29.1,20.9,29.79,WNW,298,8.0,12.0,71,0.00,CLR,,0.01,WeatherDisplay:10.37,2013-03-12 21:50:00,
2013-03-12 16:55:00,29.3,20.4,29.79,WNW,298,8.0,12.0,69,0.00,CLR,,0.01,WeatherDisplay:10.37,2013-03-12 21:55:00,
2013-03-12 17:00:00,29.1,19.5,29.79,WNW,299,8.0,16.0,67,0.00,CLR,,0.01,WeatherDisplay:10.37,2013-03-12 22:00:00,
2013-03-12 17:05:00,29.1,21.2,29.79,WNW,301,7.0,12.0,72,0.00,CLR,,0.01,WeatherDisplay:10.37,2013-03-12 22:05:00,
2013-03-12 17:10:00,29.1,21.2,29.79,WNW,298,7.0,14.0,72,0.00,CLR,,0.01,WeatherDisplay:10.37,2013-03-12 22:10:00,
2013-03-12 17:15:00,29.1,21.2,29.80,WNW,296,9.0,13.0,72,0.00,CLR,,0.01,WeatherDisplay:10.37,2013-03-12 22:15:00,
2013-03-12 17:20:00,28.7,22.1,29.80,NW,304,8.0,13.0,76,0.00,CLR,,0.01,WeatherDisplay:10.37,2013-03-12 22:20:00,
2013-03-12 17:25:00,28.4,22.1,29.80,NW,306,5.0,12.0,77,0.00,CLR,,0.01,WeatherDisplay:10.37,2013-03-12 22:25:00,
2013-03-12 17:30:00,28.2,21.6,29.80,NW,304,5.0,11.0,76,0.00,CLR,,0.01,WeatherDisplay:10.37,2013-03-12 22:30:00,
2013-03-12 17:35:00,28.5,21.9,29.80,WNW,303,6.0,15.0,76,0.00,CLR,,0.01,WeatherDisplay:10.37,2013-03-12 22:35:00,
2013-03-12 17:40:00,28.4,20.8,29.80,NW,306,7.0,12.0,73,0.00,CLR,,0.01,WeatherDisplay:10.37,2013-03-12 22:40:00,
2013-03-12 17:45:00,28.1,20.9,29.81,NW,308,7.0,16.0,74,0.00,CLR,,0.01,WeatherDisplay:10.37,2013-03-12 22:45:00,
2013-03-12 17:50:00,27.7,20.8,29.81,WNW,300,9.0,16.0,75,0.00,CLR,,0.01,WeatherDisplay:10.37,2013-03-12 22:50:00,
2013-03-12 17:55:00,27.5,19.7,29.81,WNW,298,7.0,16.0,72,0.00,CLR,,0.01,WeatherDisplay:10.37,2013-03-12 22:55:00,
2013-03-12 18:00:00,27.6,19.8,29.81,WNW,299,6.0,12.0,72,0.00,CLR,,0.01,WeatherDisplay:10.37,2013-03-12 23:00:00,
2013-03-12 18:05:00,27.8,19.3,29.81,WNW,298,9.0,14.0,70,0.00,CLR,,0.01,WeatherDisplay:10.37,2013-03-12 23:05:00,
2013-03-12 18:10:00,27.9,19.4,29.81,WNW,298,7.0,14.0,70,0.00,CLR,,0.01,WeatherDisplay:10.37,2013-03-12 23:10:00,
2013-03-12 18:15:00,27.8,18.6,29.82,WNW,297,9.0,14.0,68,0.00,CLR,,0.01,WeatherDisplay:10.37,2013-03-12 23:15:00,
2013-03-12 18:20:00,27.8,18.9,29.82,WNW,296,7.0,12.0,69,0.00,CLR,,0.01,WeatherDisplay:10.37,2013-03-12 23:20:00,
2013-03-12 18:25:00,27.9,19.7,29.82,WNW,296,6.0,12.0,71,0.00,CLR,,0.01,WeatherDisplay:10.37,2013-03-12 23:25:00,
2013-03-12 18:30:00,27.9,19.4,29.82,WNW,295,7.0,13.0,70,0.00,CLR,,0.01,WeatherDisplay:10.37,2013-03-12 23:30:00,
2013-03-12 18:35:00,27.9,19.4,29.82,WNW,296,6.0,12.0,70,0.00,CLR,,0.01,WeatherDisplay:10.37,2013-03-12 23:35:00,
2013-03-12 18:40:00,27.9,19.4,29.82,WNW,296,5.0,12.0,70,0.00,CLR,,0.01,WeatherDisplay:10.37,2013-03-12 23:40:00,
2013-03-12 18:45:00,28.1,19.6,29.83,WNW,297,7.0,12.0,70,0.00,CLR,,0.01,WeatherDisplay:10.37,2013-03-12 23:45:00,
2013-03-12 18:50:00,28.1,19.6,29.83,WNW,299,9.0,14.0,70,0.00,CLR,,0.01,WeatherDisplay:10.37,2013-03-12 23:50:00,
2013-03-12 19:00:00,27.8,20.6,29.83,WNW,288,5.0,10.0,74,0.00,CLR,,0.01,WeatherDisplay:10.37,2013-03-13 00:00:00,
2013-03-12 19:05:00,27.6,21.0,29.83,WNW,290,5.0,9.0,76,0.00,CLR,,0.01,WeatherDisplay:10.37,2013-03-13 00:05:00,
2013-03-12 19:10:00,27.6,20.7,29.83,WNW,298,3.0,13.0,75,0.00,CLR,,0.01,WeatherDisplay:10.37,2013-03-13 00:10:00,
2013-03-12 19:15:00,27.6,21.0,29.84,WNW,296,6.0,12.0,76,0.00,CLR,,0.01,WeatherDisplay:10.37,2013-03-13 00:15:00,
2013-03-12 19:20:00,27.6,20.7,29.84,WNW,289,5.0,12.0,75,0.00,CLR,,0.01,WeatherDisplay:10.37,2013-03-13 00:20:00,
2013-03-12 19:25:00,27.5,20.3,29.84,WNW,290,9.0,16.0,74,0.00,CLR,,0.01,WeatherDisplay:10.37,2013-03-13 00:25:00,
2013-03-12 19:30:00,27.5,20.3,29.84,WNW,301,7.0,16.0,74,0.00,CLR,,0.01,WeatherDisplay:10.37,2013-03-13 00:30:00,
2013-03-12 19:35:00,27.5,20.6,29.84,WNW,303,6.0,12.0,75,0.00,CLR,,0.01,WeatherDisplay:10.37,2013-03-13 00:35:00,
2013-03-12 19:40:00,27.5,20.9,29.84,WNW,300,5.0,12.0,76,0.00,CLR,,0.01,WeatherDisplay:10.37,2013-03-13 00:40:00,
2013-03-12 19:45:00,27.3,21.0,29.85,WNW,301,6.0,12.0,77,0.00,CLR,,0.01,WeatherDisplay:10.37,2013-03-13 00:45:00,
2013-03-12 19:50:00,27.3,20.7,29.85,WNW,301,6.0,12.0,76,0.00,CLR,,0.01,WeatherDisplay:10.37,2013-03-13 00:50:00,
2013-03-12 19:55:00,27.3,20.7,29.85,WNW,298,7.0,12.0,76,0.00,CLR,,0.01,WeatherDisplay:10.37,2013-03-13 00:55:00,
2013-03-12 20:00:00,27.5,20.9,29.85,WNW,300,7.0,12.0,76,0.00,CLR,,0.01,WeatherDisplay:10.37,2013-03-13 01:00:00,
2013-03-12 20:05:00,27.5,21.2,29.85,WNW,298,5.0,12.0,77,0.00,CLR,,0.01,WeatherDisplay:10.37,2013-03-13 01:05:00,
2013-03-12 20:10:00,27.2,21.8,29.85,WNW,295,6.0,13.0,80,0.00,CLR,,0.01,WeatherDisplay:10.37,2013-03-13 01:10:00,
2013-03-12 20:15:00,26.9,22.1,29.86,WNW,298,5.0,14.0,82,0.00,CLR,,0.01,WeatherDisplay:10.37,2013-03-13 01:15:00,
2013-03-12 20:20:00,26.7,22.2,29.86,WNW,299,5.0,9.0,83,0.00,CLR,,0.01,WeatherDisplay:10.37,2013-03-13 01:20:00,
2013-03-12 20:25:00,26.9,22.4,29.86,WNW,299,6.0,12.0,83,0.00,CLR,,0.01,WeatherDisplay:10.37,2013-03-13 01:25:00,
2013-03-12 20:30:00,26.9,21.8,29.86,WNW,302,5.0,12.0,81,0.00,CLR,,0.01,WeatherDisplay:10.37,2013-03-13 01:30:00,
2013-03-12 20:35:00,27.0,21.9,29.86,WNW,296,5.0,10.0,81,0.00,CLR,,0.01,WeatherDisplay:10.37,2013-03-13 01:35:00,
2013-03-12 20:40:00,27.0,21.9,29.86,WNW,296,3.0,12.0,81,0.00,CLR,,0.01,WeatherDisplay:10.37,2013-03-13 01:40:00,
2013-03-12 20:45:00,27.0,21.7,29.87,WNW,300,6.0,10.0,80,0.00,CLR,,0.01,WeatherDisplay:10.37,2013-03-13 01:45:00,
2013-03-12 20:55:00,27.0,21.1,29.87,WNW,295,7.0,12.0,78,0.00,CLR,,0.01,WeatherDisplay:10.37,2013-03-13 01:55:00,
2013-03-12 21:00:00,27.2,21.2,29.87,WNW,295,8.0,13.0,78,0.00,CLR,,0.01,WeatherDisplay:10.37,2013-03-13 02:00:00,
2013-03-12 21:05:00,27.2,20.6,29.87,WNW,297,7.0,12.0,76,0.00,CLR,,0.01,WeatherDisplay:10.37,2013-03-13 02:05:00,
2013-03-12 21:10:00,27.2,20.3,29.87,WNW,294,7.0,12.0,75,0.00,CLR,,0.01,WeatherDisplay:10.37,2013-03-13 02:10:00,
2013-03-12 21:15:00,27.2,20.3,29.87,WNW,296,6.0,13.0,75,0.00,CLR,,0.01,WeatherDisplay:10.37,2013-03-13 02:15:00,
2013-03-12 21:20:00,27.0,19.2,29.87,WNW,296,7.0,15.0,72,0.00,CLR,,0.01,WeatherDisplay:10.37,2013-03-13 02:20:00,
2013-03-12 21:25:00,27.0,19.2,29.87,WNW,294,9.0,17.0,72,0.00,CLR,,0.01,WeatherDisplay:10.37,2013-03-13 02:25:00,
2013-03-12 21:30:00,26.9,19.4,29.88,WNW,297,6.0,13.0,73,0.00,CLR,,0.01,WeatherDisplay:10.37,2013-03-13 02:30:00,
2013-03-12 21:35:00,26.9,18.7,29.88,WNW,299,8.0,13.0,71,0.00,CLR,,0.01,WeatherDisplay:10.37,2013-03-13 02:35:00,
2013-03-12 21:40:00,26.9,18.7,29.88,WNW,299,7.0,13.0,71,0.00,CLR,,0.01,WeatherDisplay:10.37,2013-03-13 02:40:00,
2013-03-12 21:45:00,26.9,18.7,29.88,WNW,298,6.0,12.0,71,0.00,CLR,,0.01,WeatherDisplay:10.37,2013-03-13 02:45:00,
2013-03-12 21:55:00,26.9,18.4,29.88,WNW,299,8.0,12.0,70,0.00,CLR,,0.01,WeatherDisplay:10.37,2013-03-13 02:55:00,
2013-03-12 22:05:00,26.9,17.7,29.88,WNW,299,10.0,17.0,68,0.00,CLR,,0.01,WeatherDisplay:10.37,2013-03-13 03:05:00,
2013-03-12 22:10:00,26.9,17.7,29.88,WNW,298,8.0,14.0,68,0.00,CLR,,0.01,WeatherDisplay:10.37,2013-03-13 03:10:00,
2013-03-12 22:15:00,26.9,17.0,29.89,WNW,302,10.0,16.0,66,0.00,CLR,,0.01,WeatherDisplay:10.37,2013-03-13 03:15:00,
2013-03-12 22:20:00,26.9,17.7,29.89,NW,308,8.0,14.0,68,0.00,CLR,,0.01,WeatherDisplay:10.37,2013-03-13 03:20:00,
2013-03-12 22:25:00,26.9,17.7,29.89,WNW,301,9.0,14.0,68,0.00,CLR,,0.01,WeatherDisplay:10.37,2013-03-13 03:25:00,
2013-03-12 22:30:00,26.7,17.9,29.89,NW,306,7.0,14.0,69,0.00,CLR,,0.01,WeatherDisplay:10.37,2013-03-13 03:30:00,
2013-03-12 22:35:00,26.6,17.5,29.89,NW,311,12.0,18.0,68,0.00,CLR,,0.01,WeatherDisplay:10.37,2013-03-13 03:35:00,
2013-03-12 22:40:00,26.4,17.6,29.89,NW,311,12.0,17.0,69,0.00,CLR,,0.01,WeatherDisplay:10.37,2013-03-13 03:40:00,
2013-03-12 22:45:00,26.1,18.6,29.90,NW,321,12.0,23.0,73,0.00,CLR,,0.01,WeatherDisplay:10.37,2013-03-13 03:45:00,
2013-03-12 22:50:00,25.8,19.5,29.90,NW,317,9.0,15.0,77,0.00,CLR,,0.01,WeatherDisplay:10.37,2013-03-13 03:50:00,
2013-03-12 22:55:00,25.4,20.1,29.90,NW,323,7.0,14.0,80,0.00,CLR,,0.01,WeatherDisplay:10.37,2013-03-13 03:55:00,
2013-03-12 23:00:00,25.0,20.9,29.90,NW,326,7.0,22.0,84,0.00,CLR,,0.01,WeatherDisplay:10.37,2013-03-13 04:00:00,
2013-03-12 23:05:00,24.8,21.2,29.90,NNW,332,7.0,12.0,86,0.00,CLR,,0.01,WeatherDisplay:10.37,2013-03-13 04:05:00,
2013-03-12 23:10:00,24.7,21.7,29.90,NNW,342,7.0,14.0,88,0.00,CLR,,0.01,WeatherDisplay:10.37,2013-03-13 04:10:00,
2013-03-12 23:15:00,24.5,21.7,29.92,North,349,8.0,17.0,89,0.00,CLR,,0.01,WeatherDisplay:10.37,2013-03-13 04:15:00,
2013-03-12 23:20:00,23.9,20.9,29.92,North,349,8.0,20.0,88,0.00,CLR,,0.01,WeatherDisplay:10.37,2013-03-13 04:20:00,
2013-03-12 23:25:00,23.8,20.2,29.92,NNW,342,6.0,15.0,86,0.00,CLR,,0.01,WeatherDisplay:10.37,2013-03-13 04:25:00,
2013-03-12 23:30:00,23.9,19.5,29.92,NNW,343,7.0,14.0,83,0.00,CLR,,0.01,WeatherDisplay:10.37,2013-03-13 04:30:00,
2013-03-12 23:35:00,23.9,17.7,29.92,NNW,344,12.0,18.0,77,0.00,CLR,,0.01,WeatherDisplay:10.37,2013-03-13 04:35:00,
2013-03-12 23:40:00,23.9,16.2,29.92,NNW,341,12.0,17.0,72,0.00,CLR,,0.01,WeatherDisplay:10.37,2013-03-13 04:40:00,
2013-03-12 23:45:00,23.9,15.5,29.93,NNW,346,7.0,15.0,70,0.00,CLR,,0.01,WeatherDisplay:10.37,2013-03-13 04:45:00,
2013-03-12 23:50:00,23.9,14.9,29.93,North,353,13.0,18.0,68,0.00,CLR,,0.01,WeatherDisplay:10.37,2013-03-13 04:50:00,
2013-03-12 23:55:00,23.8,14.4,29.93,North,349,8.0,18.0,67,0.00,CLR,,0.01,WeatherDisplay:10.37,2013-03-13 04:55:00,